[TLELIST] Archives

 

[list_settings.list_name] Current TLEs

September 29th 2009 PST

HST 1 20580U 90037B 09269.05920251 +.00000353 +00000-0 +14278-4 0 04536 2 20580 028.4691 163.9391 0003234 273.0904 086.9357 15.00833006865021 ISS (ZARYA) 1 25544U 98067A 09270.93046296 +.00012316 +00000-0 +87133-4 0 06870 2 25544 051.6378 139.3506 0009010 136.5725 048.2903 15.74423743622138 CXO 1 25867U 99040B 09272.29166667 +.00000243 +00000-0 +10000-3 0 03754 2 25867 065.9107 065.2904 7715019 275.4442 001.7860 00.37806197005404 ____________________________________________________________________ These 2-Line ...Continue Reading

[list_settings.list_name] Current TLEs

September 28th 2009 PST

HST 1 20580U 90037B 09269.05920251 +.00000353 +00000-0 +14278-4 0 04536 2 20580 028.4691 163.9391 0003234 273.0904 086.9357 15.00833006865021 ISS (ZARYA) 1 25544U 98067A 09270.78646569 .00012443 00000-0 87997-4 0 6860 2 25544 051.6377 140.0905 0009007 135.9273 312.2213 15.74420558622113 CXO 1 25867U 99040B 09266.95833333 -.00000051 +00000-0 +10000-3 0 03748 2 25867 065.8798 065.4721 7705739 275.4425 355.7834 00.37806946005389 ____________________________________________________________________ These 2-Line ...Continue Reading

[list_settings.list_name] Current TLEs

September 27th 2009 PST

HST 1 20580U 90037B 09267.52973047 +.00000311 +00000-0 +11008-4 0 04528 2 20580 028.4692 173.9205 0003253 256.6927 103.3442 15.00832163864795 ISS (ZARYA) 1 25544U 98067A 09270.16149522 .00013321 00000-0 93947-4 0 6823 2 25544 051.6380 143.3013 0008806 132.7764 010.7298 15.74407949622010 CXO 1 25867U 99040B 09266.95833333 -.00000051 +00000-0 +10000-3 0 03748 2 25867 065.8798 065.4721 7705739 275.4425 355.7834 00.37806946005389 ____________________________________________________________________ These 2-Line ...Continue Reading

[list_settings.list_name] Current TLEs

September 26th 2009 PST

HST 1 20580U 90037B 09267.52973047 +.00000311 +00000-0 +11008-4 0 04528 2 20580 028.4692 173.9205 0003253 256.6927 103.3442 15.00832163864795 ISS (ZARYA) 1 25544U 98067A 09268.81095679 .00014515 00000-0 10211-3 0 6744 2 25544 051.6376 150.2386 0008950 127.4669 276.3001 15.74374153621808 CXO 1 25867U 99040B 09266.95833333 -.00000051 +00000-0 +10000-3 0 03748 2 25867 065.8798 065.4721 7705739 275.4425 355.7834 00.37806946005389 ____________________________________________________________________ These 2-Line ...Continue Reading

[list_settings.list_name] Current TLEs

September 25th 2009 PST

HST 1 20580U 90037B 09264.20478514 +.00000313 +00000-0 +11154-4 0 04512 2 20580 028.4698 195.6356 0003465 221.7899 138.2394 15.00831186864297 ISS (ZARYA) 1 25544U 98067A 09266.84340728 +.00011653 +00000-0 +83093-4 0 06629 2 25544 051.6391 160.3470 0009216 122.3268 282.5449 15.74306025621499 CXO 1 25867U 99040B 09266.95833333 -.00000051 +00000-0 +10000-3 0 03748 2 25867 065.8798 065.4721 7705739 275.4425 355.7834 00.37806946005389 ____________________________________________________________________ These 2-Line ...Continue Reading

[list_settings.list_name] Current TLEs

September 24th 2009 PST

HST 1 20580U 90037B 09264.20478514 +.00000313 +00000-0 +11154-4 0 04512 2 20580 028.4698 195.6356 0003465 221.7899 138.2394 15.00831186864297 ISS (ZARYA) 1 25544U 98067A 09266.28108029 .00010761 00000-0 77135-4 0 6600 2 25544 051.6387 163.2371 0009217 120.0967 335.6322 15.74287722621401 CXO 1 25867U 99040B 09266.95833333 -.00000051 +00000-0 +10000-3 0 03748 2 25867 065.8798 065.4721 7705739 275.4425 355.7834 00.37806946005389 ____________________________________________________________________ These 2-Line ...Continue Reading

[list_settings.list_name] Current TLEs

September 23rd 2009 PST

HST 1 20580U 90037B 09264.20478514 +.00000313 +00000-0 +11154-4 0 04512 2 20580 028.4698 195.6356 0003465 221.7899 138.2394 15.00831186864297 ISS (ZARYA) 1 25544U 98067A 09266.15847543 .00010626 00000-0 76233-4 0 6593 2 25544 051.6385 163.8665 0009184 119.4930 000.9110 15.74284333621385 CXO 1 25867U 99040B 09264.33333333 -.00000012 +00000-0 +10000-3 0 03739 2 25867 065.8691 065.5497 7698074 275.4604 358.4309 00.37805102005373 ____________________________________________________________________ These 2-Line ...Continue Reading

[list_settings.list_name] Current TLEs

September 22nd 2009 PST

HST 1 20580U 90037B 09261.14583680 +.00000344 +00000-0 +13565-4 0 04492 2 20580 028.4698 215.5945 0003466 189.2795 170.7757 15.00830497863834 ISS (ZARYA) 1 25544U 98067A 09263.93228819 +.00010849 +00000-0 +77898-4 0 06466 2 25544 051.6381 175.3014 0009258 111.0306 344.3223 15.74235863621030 CXO 1 25867U 99040B 09264.33333333 -.00000012 +00000-0 +10000-3 0 03739 2 25867 065.8691 065.5497 7698074 275.4604 358.4309 00.37805102005373 ____________________________________________________________________ These 2-Line ...Continue Reading

[list_settings.list_name] Current TLEs

September 21st 2009 PST

HST 1 20580U 90037B 09261.14583680 +.00000344 +00000-0 +13565-4 0 04492 2 20580 028.4698 215.5945 0003466 189.2795 170.7757 15.00830497863834 ISS (ZARYA) 1 25544U 98067A 09262.91454817 +.00010797 +00000-0 +77624-4 0 06416 2 25544 051.6384 180.5293 0009242 107.3648 336.3562 15.74212717620871 CXO 1 25867U 99040B 09261.70833333 +.00000101 +00000-0 +10000-3 0 03729 2 25867 065.8518 065.6078 7691873 275.5004 001.0162 00.37806419005361 ____________________________________________________________________ These 2-Line ...Continue Reading

[list_settings.list_name] Current TLEs

September 20th 2009 PST

HST 1 20580U 90037B 09261.14583680 +.00000344 +00000-0 +13565-4 0 04492 2 20580 028.4698 215.5945 0003466 189.2795 170.7757 15.00830497863834 ISS (ZARYA) 1 25544U 98067A 09261.89198260 +.00009605 +00000-0 +69633-4 0 06359 2 25544 051.6379 185.7809 0009184 103.9907 300.8084 15.74184956620711 CXO 1 25867U 99040B 09261.70833333 +.00000101 +00000-0 +10000-3 0 03729 2 25867 065.8518 065.6078 7691873 275.5004 001.0162 00.37806419005361 ____________________________________________________________________ These 2-Line ...Continue Reading
  • This mailing list is a public mailing list - anyone may join or leave, at any time.
  • This mailing list is announce-only.

International Space Station (ISS) / Hubble Space Telescope (HST) / Chandra X-Ray Observatory Orbital Data via EMAIL

Privacy Policy:

Private list